Location: Budapest
(47.4979°N, 19.0402°E)
Time: 12:23:26
(UTC+02:00)

Vanguard 3 - All Passes

Search period start: 22 April 2018 00:00
Search period end: 02 May 2018 00:00
Orbit: 508 x 3264 km, 33.3° (Epoch: 21 April)

Date Brightness Start Highest point End Pass type
(mag) Time Alt. Az. Time Alt. Az. Time Alt. Az.
22 Apr - 02:03:22 10° SW 02:07:33 19° S 02:13:18 10° SSE visible
22 Apr - 04:19:16 10° SSW 04:19:30 10° SSW 04:19:42 10° SSW visible
22 Apr - 22:41:31 10° S 22:43:21 13° SSE 22:45:25 10° SE night (unlit)
23 Apr - 00:50:33 10° SW 00:54:00 18° S 00:58:36 10° SE night (unlit)
23 Apr - 03:02:28 10° SW 03:05:28 13° SSW 03:09:06 10° S visible
23 Apr - 23:38:05 10° SSW 23:40:43 16° S 23:43:55 10° SE night (unlit)
24 Apr - 01:48:42 10° SW 01:51:44 14° S 01:55:30 10° SSE night (unlit)
24 Apr - 22:26:06 10° SSW 22:27:34 12° SSE 22:29:10 10° SSE night (unlit)
25 Apr - 00:35:39 10° SW 00:38:15 14° S 00:41:25 10° SSE night (unlit)
25 Apr - 23:22:59 10° SSW 23:24:59 13° S 23:27:15 10° SSE night (unlit)
26 Apr - 22:10:42 10° SSW 22:11:49 11° S 22:12:58 10° SSE visible
27 Apr - 00:21:20 10° SSW 00:22:30 11° S 00:23:45 10° S night (unlit)
27 Apr - 23:08:11 10° SSW 23:09:14 11° S 23:10:21 10° SSE night (unlit)
28 Apr - 21:55:20 10° S 21:56:04 10° S 21:56:49 10° SSE visible
30 Apr - 21:40:01 10° S 21:40:18 10° S 21:40:35 10° S visible
01 May - 20:25:45 10° SSW 20:27:09 11° S 20:28:28 10° SSE visible
